"Sample Date","Sample Time","Sensor Name","Sample Value","Units","Flow Rate","Sample Interval","Sample Volume","Laser Status","Number Channels","Micron Size 0","Counts/Channel 0","Micron Size 1","Counts/Channel 1","Micron Size 2","Counts/Channel 2","Micron Size 3","Counts/Channel 3","Micron Size 4","Counts/Channel 4","Micron Size 5","Counts/Channel 5","Micron Size 6","Counts/Channel 6","Micron Size 7","Counts/Channel 7","Micron Size 8","Counts/Channel 8","Micron Size 9","Counts/Channel 9","Micron Size 10","Counts/Channel 10","Micron Size 11","Counts/Channel 11","Micron Size 12","Counts/Channel 12","Micron Size 13","Counts/Channel 13","Micron Size 14","Counts/Channel 14","Micron Size 15","Counts/Channel 15","Micron Size 16","Counts/Channel 16","Micron Size 17","Counts/Channel 17","Micron Size 18","Counts/Channel 18","Micron Size 19","Counts/Channel 19","Micron Size 20","Counts/Channel 20","Micron Size 21","Counts/Channel 21","Micron Size 22","Counts/Channel 22","Micron Size 23","Counts/Channel 23","Micron Size 24","Counts/Channel 24","Micron Size 25","Counts/Channel 25","Micron Size 26","Counts/Channel 26","Micron Size 27","Counts/Channel 27","Micron Size 28","Counts/Channel 28","Micron Size 29","Counts/Channel 29","Micron Size 30","Counts/Channel 30","Micron Size 31","Counts/Channel 31"
"07/02/06","01:00:02","AMMA06",61889.000,"cc",28387.768,6.00,2838.777,1,6,0.100,27733.000,0.200,26848.000,0.300,5189.000,0.500,1231.000,1.000,887.000,5.000,1.000
"07/02/06","01:00:08","AMMA06",61695.000,"cc",28272.494,6.00,2827.250,1,6,0.100,27646.000,0.200,26629.000,0.300,5250.000,0.500,1275.000,1.000,894.000,5.000,1.000
"07/02/06","01:00:14","AMMA06",61723.000,"cc",28345.342,6.00,2834.534,1,6,0.100,27759.000,0.200,26720.000,0.300,5141.000,0.500,1215.000,1.000,886.000,5.000,2.000
"07/02/06","01:00:20","AMMA06",61565.000,"cc",28315.643,6.00,2831.565,1,6,0.100,27443.000,0.200,26884.000,0.300,5092.000,0.500,1263.000,1.000,882.000,5.000,1.000
"07/02/06","01:00:26","AMMA06",61740.000,"cc",28301.602,6.00,2830.160,1,6,0.100,27792.000,0.200,26721.000,0.300,5063.000,0.500,1281.000,1.000,883.000,5.000,0
"07/02/06","01:00:32","AMMA06",61423.000,"cc",28349.570,6.00,2834.957,1,6,0.100,27668.000,0.200,26427.000,0.300,5154.000,0.500,1293.000,1.000,881.000,5.000,0
"07/02/06","01:00:38","AMMA06",61554.000,"cc",28293.990,6.00,2829.399,1,6,0.100,27831.000,0.200,26674.000,0.300,5013.000,0.500,1213.000,1.000,823.000,5.000,0
"07/02/06","01:00:44","AMMA06",61914.000,"cc",28300.752,6.00,2830.075,1,6,0.100,27895.000,0.200,26831.000,0.300,5064.000,0.500,1256.000,1.000,868.000,5.000,0
"07/02/06","01:00:50","AMMA06",62095.000,"cc",28298.902,6.00,2829.890,1,6,0.100,28002.000,0.200,26814.000,0.300,5137.000,0.500,1259.000,1.000,882.000,5.000,1.000
"07/02/06","01:00:56","AMMA06",62192.000,"cc",28345.076,6.00,2834.508,1,6,0.100,28043.000,0.200,26894.000,0.300,5101.000,0.500,1300.000,1.000,854.000,5.000,0
"07/02/06","01:01:02","AMMA06",61621.000,"cc",28313.936,6.00,2831.394,1,6,0.100,27812.000,0.200,26609.000,0.300,5022.000,0.500,1258.000,1.000,920.000,5.000,0
"07/02/06","01:01:08","AMMA06",61995.000,"cc",28280.877,6.00,2828.088,1,6,0.100,27938.000,0.200,26686.000,0.300,5208.000,0.500,1258.000,1.000,904.000,5.000,1.000
"07/02/06","01:01:14","AMMA06",61596.000,"cc",28320.541,6.00,2832.054,1,6,0.100,27959.000,0.200,26496.000,0.300,4989.000,0.500,1266.000,1.000,886.000,5.000,0
"07/02/06","01:01:20","AMMA06",61879.000,"cc",28307.313,6.00,2830.731,1,6,0.100,28076.000,0.200,26746.000,0.300,4892.000,0.500,1249.000,1.000,916.000,5.000,0
"07/02/06","01:01:26","AMMA06",61708.000,"cc",28333.842,6.00,2833.384,1,6,0.100,27996.000,0.200,26616.000,0.300,4936.000,0.500,1325.000,1.000,835.000,5.000,0
"07/02/06","01:01:32","AMMA06",61806.000,"cc",28303.402,6.00,2830.340,1,6,0.100,28215.000,0.200,26319.000,0.300,5087.000,0.500,1326.000,1.000,859.000,5.000,0
"07/02/06","01:01:38","AMMA06",61708.000,"cc",28360.717,6.00,2836.072,1,6,0.100,27867.000,0.200,26797.000,0.300,4945.000,0.500,1234.000,1.000,864.000,5.000,1.000
"07/02/06","01:01:44","AMMA06",61777.000,"cc",28312.133,6.00,2831.213,1,6,0.100,28313.000,0.200,26500.000,0.300,4929.000,0.500,1208.000,1.000,827.000,5.000,0
"07/02/06","01:01:50","AMMA06",61980.000,"cc",28301.801,6.00,2830.180,1,6,0.100,28082.000,0.200,26769.000,0.300,4941.000,0.500,1310.000,1.000,877.000,5.000,1.000
"07/02/06","01:01:56","AMMA06",61474.000,"cc",28305.611,6.00,2830.561,1,6,0.100,28162.000,0.200,26257.000,0.300,4883.000,0.500,1300.000,1.000,872.000,5.000,0
"07/02/06","01:02:02","AMMA06",61636.000,"cc",28333.422,6.00,2833.342,1,6,0.100,28237.000,0.200,26379.000,0.300,4897.000,0.500,1256.000,1.000,865.000,5.000,2.000
"07/02/06","01:02:08","AMMA06",61448.000,"cc",28289.332,6.00,2828.933,1,6,0.100,28151.000,0.200,26365.000,0.300,4807.000,0.500,1267.000,1.000,858.000,5.000,0
"07/02/06","01:02:14","AMMA06",61757.000,"cc",28306.139,6.00,2830.614,1,6,0.100,28139.000,0.200,26500.000,0.300,4988.000,0.500,1295.000,1.000,835.000,5.000,0
"07/02/06","01:02:20","AMMA06",61981.000,"cc",28346.611,6.00,2834.661,1,6,0.100,28468.000,0.200,26536.000,0.300,4855.000,0.500,1270.000,1.000,852.000,5.000,0
"07/02/06","01:02:26","AMMA06",61520.000,"cc",28403.461,6.00,2840.346,1,6,0.100,28412.000,0.200,26141.000,0.300,4837.000,0.500,1288.000,1.000,842.000,5.000,0
"07/02/06","01:02:32","AMMA06",61503.000,"cc",28277.143,6.00,2827.714,1,6,0.100,28045.000,0.200,26369.000,0.300,4927.000,0.500,1337.000,1.000,824.000,5.000,1.000
"07/02/06","01:02:38","AMMA06",61743.000,"cc",28289.168,6.00,2828.917,1,6,0.100,28296.000,0.200,26467.000,0.300,4844.000,0.500,1287.000,1.000,849.000,5.000,0
"07/02/06","01:02:44","AMMA06",61051.000,"cc",28300.523,6.00,2830.053,1,6,0.100,27697.000,0.200,26242.000,0.300,4936.000,0.500,1285.000,1.000,891.000,5.000,0
"07/02/06","01:02:50","AMMA06",61539.000,"cc",28352.926,6.00,2835.293,1,6,0.100,28077.000,0.200,26470.000,0.300,4883.000,0.500,1268.000,1.000,840.000,5.000,1.000
"07/02/06","01:02:56","AMMA06",61384.000,"cc",28311.893,6.00,2831.190,1,6,0.100,27930.000,0.200,26286.000,0.300,5015.000,0.500,1349.000,1.000,802.000,5.000,2.000
"07/02/06","01:03:02","AMMA06",61372.000,"cc",28315.727,6.00,2831.573,1,6,0.100,27632.000,0.200,26647.000,0.300,5005.000,0.500,1247.000,1.000,841.000,5.000,0
"07/02/06","01:03:08","AMMA06",61728.000,"cc",28301.199,6.00,2830.120,1,6,0.100,28237.000,0.200,26331.000,0.300,4947.000,0.500,1349.000,1.000,864.000,5.000,0
"07/02/06","01:03:14","AMMA06",61504.000,"cc",28310.049,6.00,2831.005,1,6,0.100,28015.000,0.200,26312.000,0.300,4944.000,0.500,1300.000,1.000,933.000,5.000,0
"07/02/06","01:03:20","AMMA06",61688.000,"cc",28304.688,6.00,2830.469,1,6,0.100,28314.000,0.200,26403.000,0.300,4876.000,0.500,1242.000,1.000,852.000,5.000,1.000
"07/02/06","01:03:26","AMMA06",61471.000,"cc",28294.346,6.00,2829.435,1,6,0.100,27942.000,0.200,26416.000,0.300,4946.000,0.500,1239.000,1.000,928.000,5.000,0
"07/02/06","01:03:32","AMMA06",61629.000,"cc",28321.895,6.00,2832.190,1,6,0.100,28296.000,0.200,26498.000,0.300,4812.000,0.500,1210.000,1.000,812.000,5.000,1.000
"07/02/06","01:03:38","AMMA06",61313.000,"cc",28322.260,6.00,2832.226,1,6,0.100,27959.000,0.200,26314.000,0.300,4851.000,0.500,1326.000,1.000,860.000,5.000,3.000
"07/02/06","01:03:44","AMMA06",61725.000,"cc",28312.246,6.00,2831.225,1,6,0.100,27910.000,0.200,26638.000,0.300,5041.000,0.500,1311.000,1.000,825.000,5.000,0
"07/02/06","01:03:50","AMMA06",61620.000,"cc",28319.746,6.00,2831.975,1,6,0.100,27831.000,0.200,26588.000,0.300,5054.000,0.500,1267.000,1.000,880.000,5.000,0
"07/02/06","01:03:56","AMMA06",61666.000,"cc",28326.920,6.00,2832.692,1,6,0.100,27741.000,0.200,26720.000,0.300,5051.000,0.500,1278.000,1.000,875.000,5.000,1.000
"07/02/06","01:04:02","AMMA06",61497.000,"cc",28291.807,6.00,2829.181,1,6,0.100,27558.000,0.200,26643.000,0.300,5163.000,0.500,1255.000,1.000,877.000,5.000,1.000
"07/02/06","01:04:08","AMMA06",61637.000,"cc",28304.842,6.00,2830.484,1,6,0.100,27665.000,0.200,26859.000,0.300,5005.000,0.500,1260.000,1.000,848.000,5.000,0
"07/02/06","01:04:14","AMMA06",61631.000,"cc",28316.422,6.00,2831.642,1,6,0.100,27884.000,0.200,26411.000,0.300,5140.000,0.500,1291.000,1.000,905.000,5.000,0
"07/02/06","01:04:20","AMMA06",62025.000,"cc",28272.508,6.00,2827.251,1,6,0.100,27920.000,0.200,26677.000,0.300,5192.000,0.500,1305.000,1.000,931.000,5.000,0
"07/02/06","01:04:26","AMMA06",61408.000,"cc",28329.424,6.00,2832.943,1,6,0.100,27696.000,0.200,26638.000,0.300,4948.000,0.500,1238.000,1.000,887.000,5.000,1.000
"07/02/06","01:04:32","AMMA06",61514.000,"cc",28341.563,6.00,2834.157,1,6,0.100,27685.000,0.200,26608.000,0.300,5109.000,0.500,1251.000,1.000,861.000,5.000,0
"07/02/06","01:04:38","AMMA06",61534.000,"cc",28326.000,6.00,2832.600,1,6,0.100,27747.000,0.200,26522.000,0.300,5124.000,0.500,1266.000,1.000,874.000,5.000,1.000
"07/02/06","01:04:44","AMMA06",61406.000,"cc",28317.266,6.00,2831.727,1,6,0.100,27620.000,0.200,26485.000,0.300,5182.000,0.500,1253.000,1.000,866.000,5.000,0
"07/02/06","01:04:50","AMMA06",62177.000,"cc",28332.449,6.00,2833.245,1,6,0.100,27846.000,0.200,27025.000,0.300,5149.000,0.500,1260.000,1.000,897.000,5.000,0
"07/02/06","01:04:56","AMMA06",61606.000,"cc",28321.967,6.00,2832.197,1,6,0.100,27577.000,0.200,26801.000,0.300,5106.000,0.500,1266.000,1.000,855.000,5.000,1.000
"07/02/06","01:05:02","AMMA06",61749.000,"cc",28289.354,6.00,2828.936,1,6,0.100,27996.000,0.200,26440.000,0.300,5160.000,0.500,1277.000,1.000,875.000,5.000,1.000
"07/02/06","01:05:08","AMMA06",61296.000,"cc",28308.617,6.00,2830.862,1,6,0.100,27604.000,0.200,26340.000,0.300,5207.000,0.500,1270.000,1.000,875.000,5.000,0
"07/02/06","01:05:14","AMMA06",61801.000,"cc",28385.981,6.00,2838.598,1,6,0.100,27657.000,0.200,26701.000,0.300,5221.000,0.500,1286.000,1.000,936.000,5.000,0
"07/02/06","01:05:20","AMMA06",61942.000,"cc",28312.469,6.00,2831.247,1,6,0.100,27770.000,0.200,26773.000,0.300,5188.000,0.500,1318.000,1.000,893.000,5.000,0
"07/02/06","01:05:26","AMMA06",61682.000,"cc",28334.496,6.00,2833.450,1,6,0.100,27522.000,0.200,26879.000,0.300,5122.000,0.500,1255.000,1.000,903.000,5.000,1.000
"07/02/06","01:05:32","AMMA06",61828.000,"cc",28301.481,6.00,2830.148,1,6,0.100,27837.000,0.200,26734.000,0.300,5130.000,0.500,1257.000,1.000,870.000,5.000,0
"07/02/06","01:05:38","AMMA06",61690.000,"cc",28318.266,6.00,2831.827,1,6,0.100,27573.000,0.200,26872.000,0.300,5192.000,0.500,1219.000,1.000,834.000,5.000,0
"07/02/06","01:05:44","AMMA06",61542.000,"cc",28326.354,6.00,2832.636,1,6,0.100,27664.000,0.200,26569.000,0.300,5130.000,0.500,1277.000,1.000,902.000,5.000,0
"07/02/06","01:05:50","AMMA06",61804.000,"cc",28320.018,6.00,2832.002,1,6,0.100,27928.000,0.200,26527.000,0.300,5190.000,0.500,1309.000,1.000,850.000,5.000,0
"07/02/06","01:05:56","AMMA06",61529.000,"cc",28308.432,6.00,2830.843,1,6,0.100,27644.000,0.200,26667.000,0.300,5156.000,0.500,1221.000,1.000,840.000,5.000,1.000
"07/02/06","01:06:02","AMMA06",61621.000,"cc",28313.988,6.00,2831.399,1,6,0.100,27778.000,0.200,26602.000,0.300,5099.000,0.500,1295.000,1.000,847.000,5.000,0
"07/02/06","01:06:08","AMMA06",61771.000,"cc",28314.340,6.00,2831.434,1,6,0.100,27769.000,0.200,26666.000,0.300,5263.000,0.500,1214.000,1.000,858.000,5.000,1.000
"07/02/06","01:06:14","AMMA06",61457.000,"cc",28311.383,6.00,2831.138,1,6,0.100,27898.000,0.200,26210.000,0.300,5269.000,0.500,1205.000,1.000,875.000,5.000,0
"07/02/06","01:06:20","AMMA06",61499.000,"cc",28355.971,6.00,2835.597,1,6,0.100,27793.000,0.200,26560.000,0.300,5055.000,0.500,1220.000,1.000,871.000,5.000,0
"07/02/06","01:06:26","AMMA06",61288.000,"cc",28328.482,6.00,2832.848,1,6,0.100,27509.000,0.200,26581.000,0.300,5135.000,0.500,1204.000,1.000,859.000,5.000,0
"07/02/06","01:06:32","AMMA06",61430.000,"cc",28301.373,6.00,2830.138,1,6,0.100,27735.000,0.200,26372.000,0.300,5179.000,0.500,1237.000,1.000,906.000,5.000,1.000
"07/02/06","01:06:38","AMMA06",61670.000,"cc",28317.246,6.00,2831.725,1,6,0.100,27715.000,0.200,26741.000,0.300,5079.000,0.500,1262.000,1.000,873.000,5.000,0
"07/02/06","01:06:44","AMMA06",61681.000,"cc",28327.631,6.00,2832.763,1,6,0.100,27976.000,0.200,26342.000,0.300,5194.000,0.500,1283.000,1.000,886.000,5.000,0
"07/02/06","01:06:50","AMMA06",61359.000,"cc",28299.732,6.00,2829.973,1,6,0.100,27838.000,0.200,26280.000,0.300,5077.000,0.500,1261.000,1.000,903.000,5.000,0
"07/02/06","01:06:56","AMMA06",61241.000,"cc",28346.035,6.00,2834.604,1,6,0.100,27707.000,0.200,26146.000,0.300,5233.000,0.500,1280.000,1.000,874.000,5.000,1.000
"07/02/06","01:07:02","AMMA06",61584.000,"cc",28269.975,6.00,2826.998,1,6,0.100,27828.000,0.200,26617.000,0.300,5068.000,0.500,1259.000,1.000,810.000,5.000,2.000
"07/02/06","01:07:08","AMMA06",61390.000,"cc",28338.807,6.00,2833.881,1,6,0.100,27726.000,0.200,26457.000,0.300,5054.000,0.500,1315.000,1.000,835.000,5.000,3.000
"07/02/06","01:07:14","AMMA06",60831.000,"cc",28312.578,6.00,2831.258,1,6,0.100,27623.000,0.200,26083.000,0.300,5047.000,0.500,1266.000,1.000,812.000,5.000,0
"07/02/06","01:07:20","AMMA06",61253.000,"cc",28289.193,6.00,2828.919,1,6,0.100,27850.000,0.200,26190.000,0.300,5108.000,0.500,1253.000,1.000,851.000,5.000,1.000
"07/02/06","01:07:26","AMMA06",61285.000,"cc",28282.088,6.00,2828.209,1,6,0.100,27846.000,0.200,26178.000,0.300,5124.000,0.500,1268.000,1.000,868.000,5.000,1.000
"07/02/06","01:07:32","AMMA06",61675.000,"cc",28360.029,6.00,2836.003,1,6,0.100,28009.000,0.200,26554.000,0.300,5016.000,0.500,1260.000,1.000,836.000,5.000,0
"07/02/06","01:07:38","AMMA06",61373.000,"cc",28320.219,6.00,2832.022,1,6,0.100,27833.000,0.200,26377.000,0.300,5007.000,0.500,1321.000,1.000,835.000,5.000,0
"07/02/06","01:07:44","AMMA06",61244.000,"cc",28340.477,6.00,2834.048,1,6,0.100,27939.000,0.200,26178.000,0.300,5020.000,0.500,1274.000,1.000,832.000,5.000,1.000
"07/02/06","01:07:50","AMMA06",61494.000,"cc",28273.553,6.00,2827.356,1,6,0.100,28065.000,0.200,26200.000,0.300,5117.000,0.500,1268.000,1.000,843.000,5.000,1.000
"07/02/06","01:07:56","AMMA06",61714.000,"cc",28312.803,6.00,2831.281,1,6,0.100,28202.000,0.200,26322.000,0.300,5033.000,0.500,1279.000,1.000,878.000,5.000,0
"07/02/06","01:08:02","AMMA06",61047.000,"cc",28386.070,6.00,2838.607,1,6,0.100,27908.000,0.200,26006.000,0.300,4962.000,0.500,1301.000,1.000,868.000,5.000,2.000
"07/02/06","01:08:08","AMMA06",61055.000,"cc",28370.303,6.00,2837.031,1,6,0.100,27920.000,0.200,26124.000,0.300,4921.000,0.500,1206.000,1.000,884.000,5.000,0
"07/02/06","01:08:14","AMMA06",61542.000,"cc",28264.068,6.00,2826.407,1,6,0.100,28194.000,0.200,26162.000,0.300,5034.000,0.500,1294.000,1.000,858.000,5.000,0
"07/02/06","01:08:20","AMMA06",60980.000,"cc",28315.154,6.00,2831.516,1,6,0.100,28016.000,0.200,25962.000,0.300,4880.000,0.500,1297.000,1.000,823.000,5.000,2.000
"07/02/06","01:08:26","AMMA06",61617.000,"cc",28272.469,6.00,2827.247,1,6,0.100,28301.000,0.200,26190.000,0.300,4980.000,0.500,1282.000,1.000,864.000,5.000,0
"07/02/06","01:08:32","AMMA06",61757.000,"cc",28315.244,6.00,2831.525,1,6,0.100,28041.000,0.200,26535.000,0.300,5017.000,0.500,1325.000,1.000,839.000,5.000,0
"07/02/06","01:08:38","AMMA06",61583.000,"cc",28325.688,6.00,2832.569,1,6,0.100,28272.000,0.200,26257.000,0.300,4963.000,0.500,1283.000,1.000,807.000,5.000,1.000
"07/02/06","01:08:44","AMMA06",61153.000,"cc",28341.705,6.00,2834.171,1,6,0.100,28024.000,0.200,26149.000,0.300,4873.000,0.500,1246.000,1.000,860.000,5.000,1.000
"07/02/06","01:08:50","AMMA06",60805.000,"cc",28328.561,6.00,2832.856,1,6,0.100,28015.000,0.200,26011.000,0.300,4794.000,0.500,1155.000,1.000,830.000,5.000,0
"07/02/06","01:08:56","AMMA06",60987.000,"cc",28283.984,6.00,2828.399,1,6,0.100,28291.000,0.200,25918.000,0.300,4731.000,0.500,1184.000,1.000,862.000,5.000,1.000
"07/02/06","01:09:02","AMMA06",61432.000,"cc",28279.783,6.00,2827.979,1,6,0.100,28156.000,0.200,26179.000,0.300,4945.000,0.500,1318.000,1.000,833.000,5.000,1.000
"07/02/06","01:09:08","AMMA06",61424.000,"cc",28372.957,6.00,2837.296,1,6,0.100,27892.000,0.200,26433.000,0.300,4885.000,0.500,1300.000,1.000,914.000,5.000,0
"07/02/06","01:09:14","AMMA06",60871.000,"cc",28338.086,6.00,2833.809,1,6,0.100,27836.000,0.200,26044.000,0.300,4845.000,0.500,1268.000,1.000,876.000,5.000,2.000
"07/02/06","01:09:20","AMMA06",61425.000,"cc",28337.207,6.00,2833.721,1,6,0.100,28233.000,0.200,26131.000,0.300,4966.000,0.500,1261.000,1.000,833.000,5.000,1.000
"07/02/06","01:09:26","AMMA06",60981.000,"cc",28300.029,6.00,2830.003,1,6,0.100,27816.000,0.200,26007.000,0.300,5017.000,0.500,1295.000,1.000,844.000,5.000,2.000
"07/02/06","01:09:32","AMMA06",61386.000,"cc",28274.574,6.00,2827.458,1,6,0.100,28069.000,0.200,26073.000,0.300,5107.000,0.500,1269.000,1.000,867.000,5.000,1.000
"07/02/06","01:09:38","AMMA06",61407.000,"cc",28357.861,6.00,2835.786,1,6,0.100,27812.000,0.200,26499.000,0.300,4949.000,0.500,1321.000,1.000,826.000,5.000,0
"07/02/06","01:09:44","AMMA06",61817.000,"cc",28292.719,6.00,2829.272,1,6,0.100,28178.000,0.200,26512.000,0.300,5004.000,0.500,1277.000,1.000,845.000,5.000,1.000
"07/02/06","01:09:50","AMMA06",61328.000,"cc",28291.080,6.00,2829.108,1,6,0.100,28000.000,0.200,26219.000,0.300,4983.000,0.500,1271.000,1.000,855.000,5.000,0
"07/02/06","01:09:56","AMMA06",61518.000,"cc",28290.242,6.00,2829.024,1,6,0.100,27904.000,0.200,26437.000,0.300,5055.000,0.500,1241.000,1.000,881.000,5.000,0
"07/02/06","01:10:02","AMMA06",61287.000,"cc",28354.990,6.00,2835.499,1,6,0.100,27786.000,0.200,26368.000,0.300,5058.000,0.500,1247.000,1.000,828.000,5.000,0
"07/02/06","01:10:08","AMMA06",61936.000,"cc",28375.455,6.00,2837.546,1,6,0.100,28099.000,0.200,26784.000,0.300,4894.000,0.500,1342.000,1.000,817.000,5.000,0
"07/02/06","01:10:14","AMMA06",61117.000,"cc",28369.109,6.00,2836.911,1,6,0.100,27562.000,0.200,26387.000,0.300,5020.000,0.500,1270.000,1.000,878.000,5.000,0
"07/02/06","01:10:20","AMMA06",61889.000,"cc",28296.441,6.00,2829.644,1,6,0.100,27820.000,0.200,26815.000,0.300,5077.000,0.500,1310.000,1.000,867.000,5.000,0
"07/02/06","01:10:26","AMMA06",61451.000,"cc",28276.586,6.00,2827.659,1,6,0.100,27655.000,0.200,26609.000,0.300,5060.000,0.500,1295.000,1.000,831.000,5.000,1.000
"07/02/06","01:10:32","AMMA06",61019.000,"cc",28285.738,6.00,2828.574,1,6,0.100,27677.000,0.200,26232.000,0.300,4948.000,0.500,1298.000,1.000,863.000,5.000,1.000
"07/02/06","01:10:38","AMMA06",61746.000,"cc",28383.356,6.00,2838.336,1,6,0.100,27767.000,0.200,26606.000,0.300,5201.000,0.500,1274.000,1.000,897.000,5.000,1.000
"07/02/06","01:10:44","AMMA06",61013.000,"cc",28360.504,6.00,2836.051,1,6,0.100,27466.000,0.200,26240.000,0.300,5170.000,0.500,1230.000,1.000,907.000,5.000,0
"07/02/06","01:10:50","AMMA06",61401.000,"cc",28262.518,6.00,2826.252,1,6,0.100,27621.000,0.200,26532.000,0.300,5075.000,0.500,1263.000,1.000,909.000,5.000,1.000
"07/02/06","01:10:56","AMMA06",61562.000,"cc",28279.773,6.00,2827.978,1,6,0.100,27743.000,0.200,26639.000,0.300,5017.000,0.500,1247.000,1.000,914.000,5.000,2.000
"07/02/06","01:11:02","AMMA06",61527.000,"cc",28291.471,6.00,2829.147,1,6,0.100,27761.000,0.200,26463.000,0.300,5134.000,0.500,1247.000,1.000,922.000,5.000,0
"07/02/06","01:11:08","AMMA06",61411.000,"cc",28321.121,6.00,2832.112,1,6,0.100,27515.000,0.200,26684.000,0.300,5006.000,0.500,1264.000,1.000,941.000,5.000,1.000
"07/02/06","01:11:14","AMMA06",60932.000,"cc",28325.391,6.00,2832.539,1,6,0.100,27244.000,0.200,26428.000,0.300,5197.000,0.500,1192.000,1.000,871.000,5.000,0
"07/02/06","01:11:20","AMMA06",61129.000,"cc",28319.607,6.00,2831.961,1,6,0.100,27662.000,0.200,26242.000,0.300,5135.000,0.500,1230.000,1.000,859.000,5.000,1.000
"07/02/06","01:11:26","AMMA06",61084.000,"cc",28347.234,6.00,2834.724,1,6,0.100,27621.000,0.200,26307.000,0.300,5076.000,0.500,1165.000,1.000,915.000,5.000,0
"07/02/06","01:11:32","AMMA06",60788.000,"cc",28315.625,6.00,2831.563,1,6,0.100,27537.000,0.200,26018.000,0.300,5139.000,0.500,1208.000,1.000,886.000,5.000,0
"07/02/06","01:11:38","AMMA06",61370.000,"cc",28315.496,6.00,2831.550,1,6,0.100,27721.000,0.200,26568.000,0.300,5035.000,0.500,1199.000,1.000,846.000,5.000,1.000
"07/02/06","01:11:44","AMMA06",61175.000,"cc",28308.555,6.00,2830.856,1,6,0.100,27288.000,0.200,26284.000,0.300,5397.000,0.500,1309.000,1.000,897.000,5.000,0
"07/02/06","01:11:50","AMMA06",61315.000,"cc",28284.590,6.00,2828.459,1,6,0.100,27457.000,0.200,26520.000,0.300,5257.000,0.500,1221.000,1.000,859.000,5.000,1.000
"07/02/06","01:11:56","AMMA06",61631.000,"cc",28275.068,6.00,2827.507,1,6,0.100,27731.000,0.200,26466.000,0.300,5252.000,0.500,1249.000,1.000,930.000,5.000,3.000
"07/02/06","01:12:02","AMMA06",61444.000,"cc",28321.451,6.00,2832.145,1,6,0.100,27462.000,0.200,26659.000,0.300,5105.000,0.500,1295.000,1.000,922.000,5.000,1.000
"07/02/06","01:12:08","AMMA06",61909.000,"cc",28342.133,6.00,2834.213,1,6,0.100,27968.000,0.200,26500.000,0.300,5280.000,0.500,1314.000,1.000,846.000,5.000,1.000
"07/02/06","01:12:14","AMMA06",61146.000,"cc",28322.793,6.00,2832.280,1,6,0.100,27361.000,0.200,26422.000,0.300,5273.000,0.500,1233.000,1.000,857.000,5.000,0
"07/02/06","01:12:20","AMMA06",61428.000,"cc",28310.106,6.00,2831.011,1,6,0.100,27645.000,0.200,26470.000,0.300,5177.000,0.500,1272.000,1.000,863.000,5.000,1.000
"07/02/06","01:12:26","AMMA06",61651.000,"cc",28344.752,6.00,2834.475,1,6,0.100,27420.000,0.200,26595.000,0.300,5365.000,0.500,1343.000,1.000,928.000,5.000,0
"07/02/06","01:12:32","AMMA06",61691.000,"cc",28342.904,6.00,2834.291,1,6,0.100,27662.000,0.200,26731.000,0.300,5183.000,0.500,1270.000,1.000,842.000,5.000,3.000
"07/02/06","01:12:38","AMMA06",61610.000,"cc",28286.318,6.00,2828.632,1,6,0.100,27779.000,0.200,26528.000,0.300,5199.000,0.500,1218.000,1.000,884.000,5.000,2.000
"07/02/06","01:12:44","AMMA06",61227.000,"cc",28321.834,6.00,2832.184,1,6,0.100,27378.000,0.200,26549.000,0.300,5197.000,0.500,1245.000,1.000,858.000,5.000,0
"07/02/06","01:12:50","AMMA06",61458.000,"cc",28344.361,6.00,2834.436,1,6,0.100,27611.000,0.200,26511.000,0.300,5213.000,0.500,1290.000,1.000,832.000,5.000,1.000
"07/02/06","01:12:56","AMMA06",61254.000,"cc",28296.900,6.00,2829.690,1,6,0.100,27633.000,0.200,26326.000,0.300,5178.000,0.500,1202.000,1.000,914.000,5.000,1.000
"07/02/06","01:13:02","AMMA06",61186.000,"cc",28287.484,6.00,2828.749,1,6,0.100,27712.000,0.200,26064.000,0.300,5239.000,0.500,1286.000,1.000,885.000,5.000,0
"07/02/06","01:13:08","AMMA06",61424.000,"cc",28343.932,6.00,2834.393,1,6,0.100,27838.000,0.200,26274.000,0.300,5259.000,0.500,1230.000,1.000,821.000,5.000,2.000
"07/02/06","01:13:14","AMMA06",60935.000,"cc",28298.141,6.00,2829.814,1,6,0.100,27633.000,0.200,25960.000,0.300,5125.000,0.500,1358.000,1.000,857.000,5.000,2.000
"07/02/06","01:13:20","AMMA06",61064.000,"cc",28328.604,6.00,2832.861,1,6,0.100,27801.000,0.200,25974.000,0.300,5166.000,0.500,1249.000,1.000,872.000,5.000,2.000
"07/02/06","01:13:26","AMMA06",61456.000,"cc",28357.027,6.00,2835.703,1,6,0.100,27909.000,0.200,26225.000,0.300,5106.000,0.500,1330.000,1.000,885.000,5.000,1.000
"07/02/06","01:13:32","AMMA06",61228.000,"cc",28266.182,6.00,2826.618,1,6,0.100,27629.000,0.200,26291.000,0.300,5061.000,0.500,1356.000,1.000,891.000,5.000,0
"07/02/06","01:13:38","AMMA06",61344.000,"cc",28323.311,6.00,2832.331,1,6,0.100,27802.000,0.200,26311.000,0.300,5075.000,0.500,1280.000,1.000,876.000,5.000,0
"07/02/06","01:13:44","AMMA06",60525.000,"cc",28318.209,6.00,2831.821,1,6,0.100,27449.000,0.200,25838.000,0.300,5120.000,0.500,1246.000,1.000,870.000,5.000,2.000
"07/02/06","01:13:50","AMMA06",61586.000,"cc",28313.045,6.00,2831.305,1,6,0.100,27962.000,0.200,26187.000,0.300,5250.000,0.500,1291.000,1.000,894.000,5.000,2.000
"07/02/06","01:13:56","AMMA06",61389.000,"cc",28303.701,6.00,2830.370,1,6,0.100,28023.000,0.200,26111.000,0.300,5164.000,0.500,1210.000,1.000,881.000,5.000,0
"07/02/06","01:14:02","AMMA06",61273.000,"cc",28341.766,6.00,2834.177,1,6,0.100,28058.000,0.200,26198.000,0.300,4871.000,0.500,1281.000,1.000,864.000,5.000,1.000